Home > Weather > Santiago > Past weeks

Flag for Chile Past Weather in Santiago, Chile — Yesterday and Last 2 Weeks

Now
45 °F

Fog.


Feels Like: 45 °F
Forecast: 44 / 64 °F
Wind: 2 mph from North

Location: Pudahuel

Current Time: Jun 30, 2016 at 1:15:05 AM

Latest Report: Jun 30, 2016 at 12:00 AM


Visibility: 2 mi

Pressure: 30.09 "Hg (28.05 "Hg at 576m altitude)

Humidity: 87%

Dew Point: 41 °F

Location of SantiagoLocation

Past Weather in Santiago — Graph

°F

Santiago Temperature Yesterday

Maximum temperature yesterday: 48 °F (at 3:00 PM)
Minimum temperature yesterday: 43 °F (at 12:00 AM)
Average temperature yesterday: 45 °F

High & Low Weather Summary for the Past Weeks

 TemperatureHumidityPressure
High73 °F (Jun 28, 4:00 PM)100% (Jun 15, 2:00 AM)30.27 "Hg (Jun 15, 2:00 AM)
Low32 °F (Jun 25, 3:00 AM)22% (Jun 21, 3:00 PM)29.92 "Hg (Jun 28, 3:00 PM)
Average46 °F79%30.08 "Hg
* Reported Jun 15 12:00 AM — Jun 30 12:00 AM, Santiago, Weather by CustomWeather, © 2016

Note: Actual official high and low records may vary slightly from our data, if they occured in-between our weather recording intervals... More about our weather records

Advertising

Santiago Weather History for the Previous 24 Hours

Scroll right to see more
 ConditionsComfort  
Time TempWeatherWind HumidityBarometerVisibility
12:00 AM
Thu, Jun 30
45 °FFog.2 mph87%30.09 "Hg1 mi
11:00 PM
Wed, Jun 29
43 °FFog.3 mph93%30.07 "Hg1 mi
10:00 PM43 °FFog.5 mph93%30.07 "Hg2 mi
9:00 PM45 °FPassing clouds.1 mph87%30.04 "Hg2 mi
8:00 PM46 °FPartly cloudy.5 mph87%30.04 "Hg2 mi
7:00 PM46 °FLow clouds.3 mph87%30.04 "Hg2 mi
6:00 PM46 °FLow clouds.2 mph87%30.01 "Hg2 mi
5:00 PM48 °FLow clouds.3 mph82%30.04 "Hg2 mi
4:00 PM48 °FLow clouds.1 mph82%30.04 "Hg2 mi
3:00 PM48 °FFog.1 mph82%30.04 "Hg2 mi
2:00 PM46 °FLow clouds.3 mph87%30.04 "Hg2 mi
1:00 PM46 °FFog.3 mph87%30.07 "Hg2 mi
12:00 PM45 °FFog.1 mph93%30.09 "Hg2 mi
11:00 AM45 °FFog.3 mph93%30.09 "Hg2 mi
10:00 AM43 °FFog.3 mph93%30.07 "Hg1 mi
9:00 AM45 °FDrizzle. Fog.5 mph87%30.07 "Hg1 mi
8:00 AM43 °FQuite cool.2 mph93%30.07 "Hg1 mi
7:00 AM43 °FQuite cool.3 mph100%30.07 "Hg1 mi
6:00 AM43 °FFog.6 mph93%30.07 "Hg1 mi
5:00 AM45 °FFog.5 mph93%30.07 "Hg1 mi
4:00 AM45 °FFog.12 mph93%30.07 "Hg1 mi
3:00 AM45 °FFog.7 mph93%30.04 "Hg0 mi
2:00 AM45 °FFog.13 mph93%30.04 "Hg1 mi
1:00 AM45 °FFog.9 mph93%30.04 "Hg0 mi
Weather by CustomWeather, © 2016

See weather overviewHow to use our weather pages